Location: Mentor
(41.6662°N, 81.3396°W)
Time: 03:17:25
(UTC+00:00)

Daily predictions for brighter satellites

Satellite Brightness Start Highest point End
(mag) Time Altitude Azimuth Time Altitude Azimuth Time Altitude Azimuth
Cosmos 372 Rocket 4.2 00:01:40 10° S 00:06:41 48° ESE 00:11:42 10° NNE
Cosmos 2263 Rocket 2.8 00:02:38 10° SW 00:08:06 61° WNW 00:13:41 10° NNE
Cosmos 1464 Rocket 4.3 00:03:43 10° SSE 00:09:26 43° E 00:15:12 10° NNE
Cosmos 1025 Rocket 4.0 00:06:46 10° NNE 00:10:30 27° ENE 00:14:15 10° SE
BREEZE-M DEB (TANK) 3.5 00:09:24 10° SSW 00:12:09 42° SE 00:19:02 10° ENE
USA 186 3.5 00:11:48 14° E 00:12:57 16° ENE 00:15:03 10° NNE
Cosmos 1782 Rocket 3.8 00:08:57 10° SSW 00:13:21 78° W 00:17:48 10° N
Cosmos 1844 Rocket 3.3 00:09:41 10° SSE 00:14:30 31° ESE 00:19:21 10° NE
Cosmos 1867 3.7 00:10:04 10° NNW 00:15:29 60° NE 00:20:52 10° SE
ISS -3.3 00:15:45 10° WSW 00:19:05 60° NNW 00:22:26 10° NE
Cosmos 2084 Rocket 4.3 00:16:59 10° NW 00:21:21 53° WSW 00:25:46 10° SSE
Cosmos 2151 Rocket 4.2 00:18:12 10° SSE 00:22:11 33° E 00:26:13 10° NNE
Cosmos 1937 Rocket 4.3 00:19:07 10° SW 00:24:16 56° WNW 00:29:25 10° NNE
USA 234 4.1 00:19:05 10° ENE 00:24:26 27° SE 00:29:46 10° S
SJ-11-01 4.2 00:20:12 10° SSE 00:24:54 74° ENE 00:29:36 10° N
Lacrosse 5 rocket 4.1 00:22:50 10° NW 00:24:56 13° NNW 00:27:04 10° NNE
Cosmos 2150 Rocket 4.3 00:21:18 10° S 00:26:22 45° ESE 00:31:32 10° NNE
Cosmos 1943 3.8 00:24:09 10° NNW 00:29:43 61° WSW 00:35:16 10° S
Cosmos 1125 Rocket 4.2 00:26:06 10° SSE 00:30:45 32° E 00:35:27 10° NE
CZ-2C R/B 2.3 00:27:56 10° WSW 00:31:04 27° S 00:32:43 19° SE
Cosmos 1891 Rocket 4.4 00:30:24 10° S 00:36:32 77° E 00:42:35 10° N
CSL-04 Debris 4.4 00:31:43 10° S 00:37:05 74° WSW 00:42:29 10° NNW
Exosat Rocket 4.1 00:33:22 10° S 00:38:38 35° ESE 00:43:12 10° NE
Cosmos 1975 Rocket 3.8 00:34:52 10° NNW 00:39:06 54° W 00:43:18 10° S
NOSS 3-4 (A) 4.3 00:35:40 10° SSE 00:40:10 23° ESE 00:42:16 19° E
NOSS 3-4 (C) 4.3 00:35:49 10° SSE 00:40:17 23° ESE 00:41:56 20° E
CSL-04 Rocket 4.0 00:38:31 10° S 00:43:53 68° WSW 00:49:22 10° NNW
Cosmos 1174 4.5 00:43:53 10° SSW 00:48:40 87° ESE 00:54:48 10° NNE
Meteor 1-15 Rocket 4.3 00:48:26 10° SSE 00:53:49 51° E 00:59:20 10° NNE
Cosmos 1674 3.3 00:50:29 10° N 00:54:01 35° ENE 00:54:01 35° ENE
Cosmos 1805 4.3 00:57:53 28° NE 00:57:53 28° NE 01:00:16 10° NNE
Abrixas rocket 3.8 00:54:30 10° NW 00:56:44 20° N 00:57:14 19° NNE
Resurs 01 Rocket 3.3 00:59:15 19° NE 00:59:15 19° NE 01:01:40 10° NNE
H-2A R/B 2.6 00:53:58 10° S 00:58:49 57° W 01:03:49 10° NNW
IRS-1A Rocket 4.3 00:55:43 16° SSE 01:00:28 68° ENE 01:06:18 10° N
Cosmos 1048 Rocket 4.0 00:55:12 10° NNW 01:00:30 64° ENE 01:03:09 30° SE
Nadezhda 4 Rocket 3.8 00:56:09 10° N 01:02:17 72° E 01:07:55 12° SSE
ATLAS 2AS CENTAUR R/B 3.4 00:55:28 10° S 01:02:34 38° ESE 01:09:42 10° NE
BREEZE-M TANK 3.3 00:52:15 10° WSW 01:03:14 83° NNW 01:05:14 31° ENE
Cosmos 2034 Rocket 4.0 01:01:26 10° S 01:07:49 89° E 01:14:12 10° N
CENTAUR R/B 3.4 01:02:11 10° NNW 01:10:08 55° NE 01:14:15 32° ESE
Okean 1 Rocket 3.0 01:16:18 57° ESE 01:16:44 60° E 01:21:10 10° NNE
ATLAS 3B R/B 4.0 01:12:31 10° NNW 01:17:59 24° NE 01:20:03 21° ENE
Okean 2 Rocket 4.4 01:14:07 10° SSW 01:18:22 41° WNW 01:22:36 10° N
Ariane Rocket 3.0 01:16:43 25° S 01:19:46 82° WSW 01:24:53 10° NNW
KORONAS-FOTON 3.8 01:16:44 10° N 01:20:25 70° NE 01:20:25 70° NE
OBJECT-B 2.7 01:23:19 22° N 01:23:19 22° N 01:24:38 10° N
Cosmos 2082 Rocket 4.2 01:21:11 10° NNE 01:23:32 13° NE 01:23:32 13° NE
Cosmos 494 Rocket 3.9 01:20:44 10° NNW 01:25:59 69° ENE 01:26:49 58° ESE
USA 238 DEB 3.8 01:18:43 10° NW 01:26:01 86° NE 01:29:18 38° SE
USA 238 3.8 01:18:49 10° NW 01:26:07 86° NE 01:29:22 38° SE
Meteor 2-5 Rocket 3.8 01:21:26 10° N 01:27:01 58° ENE 01:27:52 53° ESE
ARGOS 4.2 01:23:11 10° S 01:28:14 42° W 01:33:20 10° NNW
Resurs 1-3 3.8 01:32:05 55° NNE 01:32:05 55° NNE 01:35:48 10° N
Meteor 1-22 Rocket 4.3 01:32:15 55° ESE 01:32:31 55° E 01:38:23 10° NNE
SJ-6B 3.1 01:33:14 57° WSW 01:33:19 58° W 01:37:02 10° NNW
CZ-2C R/B 3.0 01:28:44 10° N 01:34:15 68° WNW 01:39:49 10° SSW
COSMOS 2406 4.1 01:33:37 10° N 01:38:13 33° NE 01:38:13 33° NE
Cosmos 1634 Rocket 3.8 01:37:17 45° SSE 01:39:12 70° E 01:45:22 10° NNE
USA 186 4.0 01:43:19 23° W 01:43:26 23° W 01:46:04 10° NW
SPOT 3 Rocket 3.4 01:44:55 76° ENE 01:44:55 76° ENE 01:49:58 10° N
Meteor 1-24 Rocket 3.7 01:39:20 10° N 01:44:32 62° ENE 01:44:32 62° ENE
Cosmos 2285 Rocket 4.2 01:43:24 10° SSW 01:49:40 68° WNW 01:56:01 10° NNE
NOSS 3-2 (A) 4.3 01:45:16 10° NW 01:52:55 65° WSW 01:56:29 37° S
Cosmos 1844 4.5 01:48:01 10° SW 01:53:33 51° WNW 01:59:04 10° NNE
Cosmos 1626 4.4 01:51:21 10° N 01:52:28 19° N 01:52:28 19° N
ISS -1.0 01:53:59 10° WNW 01:55:46 17° NNW 01:55:46 17° NNW
Cosmos 1844 Rocket 4.0 01:53:07 10° SW 01:58:15 37° WNW 02:03:26 10° N
Cosmos 1627 Rocket 4.5 01:52:23 10° N 01:58:48 85° W 01:59:56 63° S
Cosmos 1092 Rocket 4.3 01:57:01 10° NNW 02:03:05 62° W 02:05:04 42° SSW
Lacrosse 5 rocket 4.2 02:04:10 10° NNW 02:05:52 12° N 02:06:10 12° NNE
Cosmos 2026 Rocket 4.1 02:01:24 10° N 02:07:47 77° W 02:08:36 67° SSW
USA 234 3.2 02:04:41 34° NE 02:07:53 84° NW 02:14:26 10° SW
Milstar 3 Cent rocket 4.4 02:13:31 10° SW 02:14:14 12° SW 02:14:14 12° SW
Cosmos 2279 Rocket 4.3 02:21:54 59° N 02:21:54 59° N 02:26:52 10° N
Cosmos 1833 Rocket 3.8 02:18:17 10° NNW 02:21:52 37° N 02:21:52 37° N
NOSS 3-2 (C) 4.3 02:20:59 10° NW 02:28:36 61° WSW 02:29:49 56° SSW
NOSS 3-4 (A) 3.8 02:24:40 10° SW 02:34:00 26° NNE 02:36:41 10° NNE
NOSS 3-4 (C) 3.9 02:24:47 10° SW 02:34:27 23° NNE 02:36:47 10° NNE
Resurs 01 Rocket 3.7 02:36:49 25° NW 02:36:49 25° NW 02:38:55 10° NNW
ATLAS 2AS CENTAUR R/B 3.5 02:45:35 10° SW 02:53:21 56° NW 03:01:07 10° NNE
CENTAUR R/B 3.9 02:53:09 10° NW 03:00:54 44° WSW 03:01:27 43° WSW
Cosmos 2082 Rocket 4.1 03:03:05 10° NNW 03:05:22 25° NNW 03:05:22 25° NNW
ATLAS 3B R/B 3.5 03:02:35 10° NW 03:07:18 47° NW 03:07:18 47° NW
ADEOS II 4.1 07:26:02 10° NNE 07:28:11 24° NNE 07:28:11 24° NNE
Lacrosse 5 3.4 08:06:13 32° NNE 08:06:13 32° NNE 08:09:03 10° NE
Cosmos 2278 4.4 08:08:13 52° NE 08:08:13 52° NE 08:12:38 10° NNE
CZ-2D R/B 4.3 08:02:41 10° N 08:04:03 17° NNW 08:04:03 17° NNW
Resurs 1-4 Rocket 4.3 08:09:00 10° N 08:10:13 16° NNW 08:10:13 16° NNW
ATLAS 5 CENTAUR R/B 4.4 08:16:47 10° NNW 08:16:47 10° NNW 08:16:57 10° N
Cosmos 2369 4.4 08:17:21 47° N 08:17:21 47° N 08:21:29 10° NNE
NOSS 3-3 (A) 4.4 08:19:03 49° ESE 08:19:06 49° ESE 08:25:08 10° NE
NOSS 3-3 (C) 4.4 08:19:13 49° ESE 08:19:14 49° ESE 08:25:12 10° NE
USA 267 3.2 08:15:51 10° NE 08:22:23 74° NW 08:22:28 74° NW
Spot 4 Rocket 4.2 08:30:08 10° NNE 08:35:06 70° E 08:35:06 70° E
SL-8 R/B 4.2 08:39:54 55° NNE 08:39:54 55° NNE 08:44:21 10° E
Cosmos 921 Rocket 3.8 08:43:18 47° ENE 08:43:18 47° ENE 08:46:41 10° NNE
MSX 4.0 08:39:27 10° NNE 08:45:15 68° ESE 08:47:06 43° S
Cosmos 1812 4.0 08:46:42 39° E 08:46:42 39° E 08:50:05 10° NNE
Timation 1 Rocket 4.2 08:40:58 10° NNW 08:46:59 81° WSW 08:52:59 10° SSE
Cosmos 1697 Rocket 3.7 08:48:35 32° NW 08:48:35 32° NW 08:52:40 10° N
Cosmos 1500 4.4 08:44:17 10° N 08:47:32 41° ENE 08:47:32 41° ENE
USA 305 4.5 08:51:58 27° N 08:51:58 27° N 08:54:59 10° NE
Cosmos 1980 Rocket 2.3 08:52:46 56° NW 08:52:46 56° NW 08:58:10 10° NNE
USA 306 4.5 08:56:00 26° NNW 08:56:00 26° NNW 08:59:11 10° NE
USA 234 3.5 08:49:39 10° ESE 08:56:07 69° NE 09:02:36 10° NW
BREEZE-M DEB (TANK) 3.8 08:55:57 40° SW 08:58:38 61° SSE 09:02:29 10° ENE
Cosmos 2322 Rocket 3.4 08:55:32 16° SSE 08:59:36 39° ESE 09:04:50 10° NE
BREEZE-M DEB (TANK) 3.4 09:01:04 47° NNE 09:01:04 47° NNE 09:05:15 10° ENE
Cosmos 2263 Rocket 2.5 08:55:34 10° NNW 09:01:12 65° ENE 09:06:50 10° SE
Cosmos 192 4.5 09:02:51 57° NW 09:02:51 57° NW 09:07:22 10° NNE
Celestis-02/Orion 38 4.4 09:02:20 10° SSE 09:07:37 76° WSW 09:12:48 10° NNW
SL-16 R/B 2.7 09:05:31 24° S 09:08:47 58° ESE 09:14:21 10° NNE
SL-4 R/B 2.9 09:08:18 43° SSE 09:09:04 47° SE 09:13:37 10° ENE
Cosmos 2228 Rocket 3.0 09:09:42 66° NW 09:09:42 66° NW 09:13:48 10° N
FALCON 9 DEB 4.2 09:10:01 39° ESE 09:10:01 39° ESE 09:12:54 10° ENE
ADEOS II 3.8 09:06:43 10° NNW 09:09:07 18° NW 09:09:07 18° NW
Cosmos 1934 Rocket 3.9 09:05:12 10° NNW 09:11:05 55° W 09:12:49 42° SW
ARIANE 5 R/B 3.3 09:08:40 10° N 09:12:41 34° NW 09:12:41 34° NW
USA 276 4.4 09:13:50 18° N 09:13:54 18° N 09:16:13 10° NE
Meteor 1-4 Rocket 2.6 09:16:32 68° ESE 09:16:38 69° E 09:20:08 10° NNE
COSMOS 2441 4.3 09:12:16 10° N 09:17:10 70° WNW 09:18:29 47° SW
Cosmos 1869 Rocket 3.4 09:15:09 10° N 09:19:31 88° E 09:23:50 10° S
CZ-2C R/B 2.9 09:14:31 10° NNE 09:19:39 65° ESE 09:24:47 10° S
ASTEX 1 4.0 09:15:01 10° N 09:19:17 39° WNW 09:19:17 39° WNW
IDEFIX/ARIANE 42P 3.0 09:14:43 10° N 09:19:40 42° WNW 09:20:03 41° W
Cosmos 2227 4.1 09:14:42 10° NNW 09:20:23 84° WSW 09:26:00 10° SSE
Meteor 1-10 Rocket 4.2 09:17:09 21° S 09:21:10 88° WNW 09:27:04 10° N
ERBS 3.0 09:22:46 45° N 09:22:46 45° N 09:25:33 10° NE
CZ-2C R/B 3.2 09:18:43 10° N 09:21:45 44° NW 09:21:45 44° NW
IRIDIUM 106 4.2 09:19:37 10° N 09:24:52 90° E 09:30:05 10° S
Cosmos 1763 Rocket 3.6 09:21:34 22° S 09:25:03 77° ESE 09:30:22 10° NNE
SJ 16-02 1.2 09:24:51 10° NNW 09:29:14 74° WSW 09:33:36 10° S
PSLV R/B 3.4 09:27:54 10° NNE 09:32:07 90° WNW 09:34:43 23° SSW
Cosmos 44 4.2 09:33:21 27° WNW 09:33:47 27° NW 09:37:46 10° NNE
Cosmos 1153 Rocket 4.5 09:27:53 10° N 09:34:18 89° W 09:40:37 10° S
Meteor 1-5 Rocket 4.0 09:29:09 10° NNW 09:34:26 66° W 09:39:48 10° S
CZ-4B R/B 3.1 09:32:18 10° SE 09:35:10 33° ENE 09:38:06 10° N
Meteor 2-6 Rocket 4.3 09:32:38 28° SW 09:35:26 54° WNW 09:41:09 10° N
DEBRIS 2.3 09:34:58 57° WNW 09:35:29 89° NE 09:40:37 10° ESE
H-2A R/B 2.1 09:31:22 10° S 09:35:39 59° WSW 09:40:04 10° NNW
Cosmos 1238 Rocket 4.4 09:30:21 10° NNW 09:36:18 38° W 09:39:04 25° SW
Cosmos 1605 Rocket 4.1 09:32:10 10° NNW 09:38:23 54° W 09:44:33 10° SSW
Landsat 5 3.9 09:41:57 10° S 09:46:15 44° W 09:50:34 10° NNW
PAYLOAD A 3.8 09:42:13 10° N 09:46:51 60° WNW 09:50:29 16° SSW
Lacrosse 5 3.7 09:45:25 14° NW 09:47:56 19° NNW 09:51:32 10° NNE
ERS-2 2.0 09:45:02 10° S 09:48:40 70° WSW 09:52:19 10° NNW
Cosmos 990 Rocket 3.9 09:44:50 10° NNW 09:50:00 70° WSW 09:55:11 10° S
Cosmos 540 Rocket 3.8 09:46:40 10° S 09:51:46 67° ESE 09:56:55 10° NNE
X-37B 0.8 09:51:10 31° WNW 09:52:30 69° NNE 09:55:40 10° E
Cosmos 468 Rocket 4.2 09:50:04 20° SW 09:53:33 53° WNW 09:58:43 10° N
ALOS 2.8 09:54:51 10° NNE 09:59:29 60° E 10:04:05 10° S
Cosmos 1484 Rocket 3.3 09:55:40 10° NNE 09:59:38 62° E 10:03:36 10° S
NOSS 3-4 (A) 4.2 09:55:57 10° NNW 10:03:00 70° NE 10:10:48 10° SE
NOSS 3-4 (C) 4.3 09:56:03 10° NNW 10:03:07 69° NE 10:10:54 10° SE
USA 267 4.4 09:59:11 10° NE 10:04:46 31° NNW 10:09:48 12° WNW
Cosmos 1536 2.8 10:02:41 10° NNW 10:06:44 64° W 10:10:44 10° S
Meteor 1-31 Rocket 3.1 10:07:22 10° NNE 10:11:12 69° ESE 10:15:01 10° S
Cosmos 1727 Rocket 4.4 10:05:53 10° SSW 10:11:53 44° WNW 10:17:55 10° N
Cosmos 1437 Rocket 3.4 10:09:49 10° S 10:13:31 56° E 10:17:16 10° NNE
Meteor 1-11 Rocket 4.0 10:08:37 10° NNW 10:14:06 47° W 10:19:28 10° SSW
Cosmos 2100 Rocket 4.0 10:08:45 10° NNW 10:15:06 70° W 10:21:24 10° S
deb Chang Zheng 4 3.6 10:15:45 10° N 10:19:59 60° WNW 10:24:10 10° SSW
Cosmos 1802 Rocket 4.0 10:14:13 10° N 10:20:26 84° W 10:26:43 10° S
SL-8 R/B 4.1 10:17:54 11° WNW 10:22:09 43° SW 10:26:39 10° SSE
Meteor 1-27 Rocket 4.2 10:18:00 10° SW 10:23:37 44° WNW 10:29:16 10° N
METEOR-M 4.2 10:19:27 10° NNE 10:24:51 88° ESE 10:30:12 10° SSW
Cosmos 1898 Rocket 4.0 10:20:58 10° NW 10:25:46 37° WSW 10:30:34 10° SSW
Cosmos 2360 Rocket 2.2 10:20:44 10° SSW 10:26:23 77° WNW 10:32:06 10° NNE
ATLAS 2AS CENTAUR R/B 3.0 10:19:31 10° NNW 10:27:01 80° NE 10:33:50 10° SE
ADEOS Rocket 3.4 10:21:38 10° S 10:28:15 48° W 10:34:15 10° NNW
Cosmos 1666 3.8 10:25:55 10° NW 10:28:54 22° W 10:31:53 10° SW
Cosmos 1459 Rocket 4.0 10:24:13 10° NNW 10:30:09 57° W 10:36:01 10° S
Cosmos 372 Rocket 4.0 10:27:14 10° NNW 10:32:25 86° ENE 10:37:31 10° SSE
Cosmos 2123 Rocket 4.0 10:28:58 10° S 10:35:13 83° W 10:41:33 10° N
FENGYUN 3A 3.7 10:30:59 10° N 10:36:18 62° WNW 10:41:37 10° SSW
SAR-Lupe-4 4.0 10:33:13 10° S 10:36:35 39° W 10:40:00 10° NNW
Cosmos 2242 Rocket 3.7 10:32:34 10° S 10:36:57 83° E 10:41:23 10° N
Cosmos 1980 Rocket 4.2 10:36:55 10° NW 10:37:51 10° NW 10:38:48 10° NNW
USA 234 3.9 10:33:34 10° S 10:39:23 34° SW 10:45:15 10° WNW
Cosmos 2208 Rocket 4.1 10:34:31 10° SW 10:39:40 57° WNW 10:44:48 10° NNE
Okean 1-7 3.7 10:36:35 10° S 10:40:46 60° E 10:44:57 10° NNE
Cosmos 2322 Rocket 3.0 10:38:40 10° WSW 10:43:41 32° NW 10:48:46 10° N
Cosmos 2263 Rocket 3.5 10:40:53 10° WNW 10:44:32 18° W 10:48:10 10° SW
Cosmos 1844 3.9 10:41:59 10° NNW 10:47:35 81° ENE 10:53:08 10° SSE
